Regional Weather Roundup
Issued by NWS

Home | Current Version | Previous Version | Text Only | Print | Product List | Glossary On
Versions: 1 2 3 4 5 6 7 8 9 10 11 12 13 14 15 16 17 18 19 20 21 22 23 24 25 26 27 28 29 30 31 32 33 34 35 36 37 38 39 40 41 42 43 44 45 46 47 48 49 50
000
ASUS43 KDTX 201301
RWRMI
MICHIGAN HOURLY REGIONAL WEATHER ROUNDUP
NATIONAL WEATHER SERVICE DETROIT/PONTIAC MI
900 AM EDT THU JUL 20 2017

NOTE: "FAIR" INDICATES FEW OR NO CLOUDS BELOW 12,000 FEET WITH NO
SIGNIFICANT WEATHER AND/OR OBSTRUCTION TO VISIBILITY.

MIZ047>049-052>055-059>063-066>070-074>076-081>083-201400-
SOUTHEAST LOWER MICHIGAN

CITY           SKY/WX    TMP DP  RH WIND       PRES   REMARKS
ADRIAN         CLOUDY    74  67  78 W8        30.03F
ALMA           CLOUDY    73  65  77 W6        29.99S
ANN ARBOR      PTSUNNY   76  70  82 W14       30.01R
BAD AXE        CLOUDY    73  67  83 SW9       29.94F
CARO           CLOUDY    75  68  79 W10       29.96S
DETROIT CITY   CLOUDY    79  71  76 W14       29.98R
DETROIT        CLOUDY    78  71  79 W10       29.99S
FLINT          CLOUDY    74  66  76 W12G22    29.99R
GROSSE ILE     PTSUNNY   78  71  80 W12       29.99R
HILLSDALE      PTSUNNY   72  64  78 SW9       30.04F
HOWELL         CLOUDY    73  68  82 SW8       30.01R

CITY           SKY/WX    TMP DP  RH WIND       PRES   REMARKS
JACKSON        CLOUDY    72  66  81 W13       30.03R
LAMBERTVILLE   PTSUNNY   76  69  78 W9        30.00F
LANSING        LGT RAIN  72  65  78 W10       30.02R
LAPEER         NOT AVBL
MASON          CLOUDY    72  67  85 W7        30.03R
MONROE         PTSUNNY   77  70  81 SW8       29.98F
MT. CLEMENS    PTSUNNY   78  74  86 W10       29.96S
PONTIAC        CLOUDY    76  71  85 W12       29.98R
PORT HOPE        N/A     73  66  78 VRB7      29.91F
PORT HURON     PTSUNNY   73  70  88 S5        29.96R
TRI CITIES     CLOUDY    74  70  87 W15       29.98R
MIDLAND        FAIR      73  65  74 W10G16    29.97R
TROY           PTSUNNY   78  71  80 W7        30.00R
SAGINAW HB     CLOUDY    73  68  83 W13       29.97
$$
MIZ043>046-050>051-056>058-064>065-071>073-077>080-201400-
SOUTHWEST LOWER MICHIGAN

CITY           SKY/WX    TMP DP  RH WIND       PRES   REMARKS
BATTLE CREEK   CLOUDY    71  67  87 SW10      30.05R
BENTON HARBOR  RAIN      70  66  87 W8        30.06S FOG
BIG RAPIDS     CLOUDY    70  63  78 W8G17     29.99S
COLDWATER      CLOUDY    71  69  93 SW8       30.06R
FREMONT        FAIR      69  67  93 W5        29.99F
HOLLAND        LGT RAIN  71  66  84 W16       30.00F
GRAND RAPIDS   CLOUDY    70  69  97 W6        30.00F
IONIA          DRIZZLE   70  66  89 SW8       30.02R
KALAMAZOO      CLOUDY    72  65  78 SW10      30.05R
LUDINGTON      CLOUDY    71  67  88 SW6       29.97F
MARSHALL       CLOUDY    70  68  94 SW9       30.04R
MOUNT PLEASANT CLOUDY    74  65  73 W6        29.97F
MUSKEGON       CLOUDY    72  67  84 CALM      29.97F
SOUTH HAVEN    RAIN      70  69  95 W9G21     30.03F
$$
MIZ016>042-201400-
NORTHERN LOWER MICHIGAN

CITY           SKY/WX    TMP DP  RH WIND       PRES   REMARKS
ALPENA         CLOUDY    70  63  78 E5        29.94S
BEAVER ISLAND  SUNNY     71  62  72 SW6       29.92R
BELLAIRE       PTSUNNY   72  63  73 SW6       29.95R
CADILLAC       CLOUDY    73  65  74 W17G24    29.98S
CHARLEVOIX     SUNNY     73  64  75 SW10G18   29.96R
FRANKFORT      CLOUDY    72  68  88 W14G21    29.96S
GAYLORD        SUNNY     71  60  68 W14       29.96R
GRAYLING       PTSUNNY   69  61  75 W7        29.97S
HARBOR SPRINGS CLOUDY    69  62  77 CALM      29.93R
HOUGHTON LAKE  CLOUDY    72  64  76 W12       29.98R
MANISTEE       CLOUDY    71  67  87 W8        29.97F
OSCODA         CLOUDY    75  65  71 W7        29.91S
PELLSTON       SUNNY     69  59  70 SE3       29.93R
ROGERS CITY    PTSUNNY   68  59  74 SE9       29.93F
TRAVERSE CITY  CLOUDY    72  65  78 W10       29.94R
$$
MIZ007>008-015-201400-
EASTERN UPPER MICHIGAN

CITY           SKY/WX    TMP DP  RH WIND       PRES   REMARKS
KINROSS        SUNNY     71  58  63 SE12      29.92S
MACKINAC ISLAN MOSUNNY   70  57  63 S9        29.92R
NEWBERRY       SUNNY     69  61  75 S6        29.91S
S. S. MARIE    SUNNY     69  60  73 CALM      29.91S
MUNISING         N/A     70  60  70 S3        29.90S
$$
MIZ004>006-011>014-085-201400-
CENTRAL UPPER MICHIGAN

CITY           SKY/WX    TMP DP  RH WIND       PRES   REMARKS
MANISTIQUE     SUNNY     69  64  85 SE3       29.91S
ESCANABA       SUNNY     67  62  84 W5        29.93R
MENOMINEE      MOSUNNY   71  65  81 VRB7      29.96F
SAWYER-GWINN   SUNNY     64  55  72 W7        29.94R
$$
MIZ001>003-009>011-084-201400-
WESTERN UPPER MICHIGAN

CITY           SKY/WX    TMP DP  RH WIND       PRES   REMARKS
IRON MOUNTAIN  SUNNY     69  58  67 W5        29.95R
HOUGHTON       SUNNY     68  56  65 W13       29.91R
COPPER HARBOR    N/A     65  55  70 CALM      29.87S
IRONWOOD       SUNNY     68  61  78 W6        29.97R
$$

ABBREVIATIONS USED IN REMARKS
   TC - TEMPERATURE IN CELSIUS
  WCI - WIND CHILL INDEX
   HX - HEAT INDEX
  VSB - VISIBILITY




USA.gov is the U.S. government's official web portal to all federal, state and local government web resources and services.